Location: Bethera
(33.2010°N, 79.7880°W)
Time: 17:11:03
(UTC-05:00)

Amateur Radio Satellites - All Passes

Search period start: 23 November 2014 16:41
Search period end: 24 November 2014 16:41
Location: Bethera, 33.2010°N, 79.7880°W

Satellite Date Start Highest point End Downlink Frequencies (MHz)
Time Altitude Azimuth
MOZHAYETS 4 23 Nov 16:47:50 16:52:09 37° 98° (E) 16:56:26
PHONESAT 2.4 23 Nov 17:19:43 17:23:06 32° 347° (NNW) 17:26:30 2401.200-2431.200
PRISM 23 Nov 17:25:40 17:28:02 15° 94° (E) 17:30:22 437.425
JAS-2 23 Nov 17:30:47 17:37:55 53° 261° (W) 17:45:34 435.910
Cubesat XI-IV 23 Nov 17:30:47 17:35:57 50° 73° (ENE) 17:41:08 437.490
VERMONT LUNAR 23 Nov 17:42:45 17:45:50 25° 355° (N) 17:48:55 437.305
O/OREOS (USA 219) 23 Nov 17:55:52 17:58:41 17° 260° (W) 18:01:29 437.305
RS-15 23 Nov 18:01:07 18:11:14 41° 309° (NW) 18:21:25 29.354- 29.394
CUTE-I 23 Nov 18:12:50 18:18:09 64° 258° (WSW) 18:23:28 437.470
CUBESAT XI-V 23 Nov 18:21:47 18:25:36 25° 96° (E) 18:29:24 437.345
MOZHAYETS 4 23 Nov 18:25:57 18:29:03 18° 292° (WNW) 18:32:09
PCSat 23 Nov 18:42:33 18:44:05 11° 102° (ESE) 18:45:38 145.827
PHONESAT 2.4 23 Nov 18:59:20 19:02:32 26° 5° (N) 19:05:42 2401.200-2431.200
PRISM 23 Nov 18:59:47 19:03:40 35° 288° (WNW) 19:07:30 437.425
Cubesat XI-IV 23 Nov 19:12:58 19:16:15 16° 266° (W) 19:19:33 437.490
BRITE-PL 23 Nov 19:19:03 19:20:48 12° 67° (ENE) 19:22:30 437.365/2234.400
VERMONT LUNAR 23 Nov 19:21:39 19:24:56 31° 12° (NNE) 19:28:13 437.305
STRAND 1 23 Nov 19:24:33 19:29:39 72° 285° (WNW) 19:34:42 437.568
SEEDS 23 Nov 19:32:43 19:33:55 11° 67° (ENE) 19:35:08 437.485
GONETS M04 23 Nov 19:35:00 19:43:38 55° 80° (E) 19:52:09
HO-68 23 Nov 19:44:03 19:50:35 40° 67° (ENE) 19:57:09 435.675
SHINDAISAT 23 Nov 19:46:40 19:48:01 23° 59° (ENE) 19:49:20 437.305
AIST 1 23 Nov 19:47:38 19:51:51 49° 93° (E) 19:56:06
AAUSAT CUBESAT 2 23 Nov 19:53:43 19:56:04 15° 68° (ENE) 19:58:26 437.432
CANX-2 23 Nov 19:54:24 19:57:56 27° 72° (ENE) 20:01:30 2200.000
CUBESAT XI-V 23 Nov 19:59:07 20:02:56 25° 290° (WNW) 20:06:43 437.345
COMPASS 1 23 Nov 20:06:02 20:09:23 24° 71° (ENE) 20:12:44 437.405
DOVE 4 23 Nov 20:10:07 20:13:37 21° 71° (ENE) 20:16:59 437.250
PCSat 23 Nov 20:21:24 20:26:47 73° 296° (WNW) 20:32:13 145.827
RS-15 23 Nov 20:24:09 20:27:52 12° 340° (NNW) 20:31:37 29.354- 29.394
CUTE 1.7 & AOD 2 23 Nov 20:28:42 20:32:52 67° 76° (ENE) 20:37:03 437.475
PHONESAT 2.4 23 Nov 20:38:07 20:41:47 56° 21° (NNE) 20:45:25 2401.200-2431.200
GOMX 1 23 Nov 20:38:34 20:43:28 62° 76° (ENE) 20:48:03 467.674
BEESAT 3 23 Nov 20:42:20 20:46:24 88° 298° (WNW) 20:50:33 437.485
UKube-1 23 Nov 20:43:58 20:47:41 28° 71° (ENE) 20:51:24 .
FUNcube-1 23 Nov 20:45:06 20:46:38 12° 67° (ENE) 20:48:10 145.935
BRITE-PL 23 Nov 20:53:38 20:58:51 66° 259° (W) 21:03:41 437.365/2234.400
BEESAT 2 23 Nov 20:55:37 20:59:41 68° 299° (WNW) 21:03:50 435.950
CUBEBUG 2 23 Nov 20:56:51 21:00:18 24° 71° (ENE) 21:03:42 437.445
Oscar 11 23 Nov 20:56:52 21:00:56 43° 74° (ENE) 21:05:00 145.826/435.025
VERMONT LUNAR 23 Nov 21:00:01 21:03:39 76° 208° (SSW) 21:07:15 437.305
UWE-3 23 Nov 21:02:34 21:05:59 24° 71° (ENE) 21:09:21 435.000/436.395/437.385
CINEMA 3 23 Nov 21:04:22 21:08:44 50° 75° (ENE) 21:12:55 145.822/145.860
SEEDS 23 Nov 21:05:15 21:09:17 48° 261° (W) 21:13:21 437.485
DX 1 23 Nov 21:16:09 21:20:31 72° 76° (ENE) 21:24:53 434.975-435.025
AIST 2 23 Nov 21:18:23 21:22:35 83° 298° (WNW) 21:26:52 435.215
AAUSAT CUBESAT 2 23 Nov 21:27:39 21:31:26 34° 262° (W) 21:35:15 437.432
AIST 1 23 Nov 21:28:38 21:29:47 11° 287° (WNW) 21:30:55
CANX-2 23 Nov 21:30:51 21:33:50 19° 265° (W) 21:36:51 2200.000
HO-68 23 Nov 21:31:55 21:38:14 33° 262° (W) 21:44:36 435.675
GONETS M04 23 Nov 21:32:53 21:39:48 27° 276° (W) 21:46:42
VELOX 1 23 Nov 21:35:02 21:39:01 32° 72° (ENE) 21:43:00 145.980
COMPASS 1 23 Nov 21:41:53 21:45:01 21° 265° (W) 21:48:11 437.405
ZACube-1 23 Nov 21:42:33 21:46:46 62° 76° (ENE) 21:50:55 437.345
HUMSAT D 23 Nov 21:45:25 21:49:15 37° 74° (ENE) 21:53:04 437.325/437.525
DELFI C3 23 Nov 21:45:34 21:49:31 52° 260° (W) 21:53:31 145.870
DOVE 4 23 Nov 21:47:01 21:51:12 30° 262° (W) 21:55:12 437.250
50 SAT 23 Nov 21:51:29 21:55:11 36° 73° (ENE) 21:58:53 437.505
AISAT 23 Nov 21:59:09 22:03:36 64° 75° (ENE) 22:08:02 437.250
POLYITAN 1 23 Nov 22:07:03 22:08:36 12° 93° (E) 22:10:09 437.675
QB50P2 23 Nov 22:09:46 22:11:43 13° 94° (E) 22:13:40 145.880/145.840
TIGRISAT 23 Nov 22:14:27 22:18:02 24° 97° (E) 22:21:39 435.000
DUCHIFAT 1 23 Nov 22:16:57 22:19:31 16° 94° (E) 22:22:05 145.980
PHONESAT 2.4 23 Nov 22:17:15 22:20:26 27° 215° (SW) 22:23:36 2401.200-2431.200
FUNcube-1 23 Nov 22:18:29 22:22:35 45° 260° (W) 22:26:37 145.935
UKube-1 23 Nov 22:20:36 22:23:48 20° 264° (W) 22:27:01 .
GOMX 1 23 Nov 22:20:44 22:21:46 11° 267° (W) 22:22:47 467.674
CUBEBUG 1 23 Nov 22:22:00 22:26:04 37° 73° (ENE) 22:30:10 437.445
UNISAT 6 23 Nov 22:26:17 22:30:19 33° 98° (E) 22:34:25 437.425
CUBEBUG 2 23 Nov 22:33:31 22:36:55 22° 264° (W) 22:40:15 437.445
NANOSAT C BR1 23 Nov 22:35:04 22:38:39 27° 97° (E) 22:42:12 145.865
Oscar 11 23 Nov 22:35:30 22:37:16 12° 267° (W) 22:39:03 145.826/435.025
UWE-3 23 Nov 22:39:05 22:42:26 22° 264° (W) 22:45:45 435.000/436.395/437.385
VERMONT LUNAR 23 Nov 22:40:19 22:41:42 12° 220° (SW) 22:43:05 437.305
RS-15 23 Nov 22:44:01 22:47:57 12° 20° (NNE) 22:51:55 29.354- 29.394
QB50P1 23 Nov 22:44:22 22:48:14 35° 98° (E) 22:52:05 145.935-145.965
CINEMA 3 23 Nov 22:44:52 22:46:06 11° 267° (W) 22:47:19 145.822/145.860
ANTELSAT 23 Nov 22:54:23 22:58:51 74° 102° (ESE) 23:03:23 437.575/2403.000
ESTCUBE 1 23 Nov 23:00:27 23:04:59 73° 258° (WSW) 23:09:33 437.505/2401.250
CUSAT 1 23 Nov 23:06:16 23:07:47 11° 77° (ENE) 23:09:25 437.405
BUGSAT 1 23 Nov 23:08:09 23:12:10 56° 101° (E) 23:16:08 437.445
POPSAT HIP 1 23 Nov 23:08:32 23:12:45 73° 102° (ESE) 23:16:57 437.405
VELOX 1 23 Nov 23:12:31 23:15:37 18° 265° (W) 23:18:43 145.980
DANDE 23 Nov 23:20:19 23:22:29 13° 78° (ENE) 23:24:54 436.750
HUMSAT D 23 Nov 23:23:13 23:25:10 13° 266° (W) 23:27:07 437.325/437.525
50 SAT 23 Nov 23:28:43 23:30:36 13° 266° (W) 23:32:29 437.505
ISS 23 Nov 23:33:25 23:36:36 50° 133° (SE) 23:39:47 145.825
JUGNU 23 Nov 23:40:36 23:43:28 14° 165° (SSE) 23:46:21 437.505
POLYITAN 1 23 Nov 23:40:43 23:44:44 43° 286° (WNW) 23:48:43 437.675
QB50P2 23 Nov 23:43:50 23:47:46 39° 287° (WNW) 23:51:42 145.880/145.840
SWISSCUBE 23 Nov 23:46:33 23:48:34 13° 65° (ENE) 23:50:35 437.505
TIGRISAT 23 Nov 23:51:05 23:54:40 25° 289° (WNW) 23:58:19 435.000
DUCHIFAT 1 23 Nov 23:51:41 23:55:26 32° 288° (WNW) 23:59:11 145.980
TISAT 1 23 Nov 23:53:48 23:58:04 75° 258° (WSW) 00:02:21 437.305
SPROUT 23 Nov 23:55:49 00:00:09 85° 258° (WSW) 00:04:30 437.525
CUBEBUG 1 23 Nov 23:59:50 00:02:32 16° 266° (W) 00:05:13 437.445
UNISAT 6 24 Nov 00:03:50 00:06:51 18° 291° (WNW) 00:09:54 437.425
AUBIESAT-1 24 Nov 00:07:53 00:11:26 35° 67° (ENE) 00:15:17 437.475
M-CUBED/EXP-1 PRIME 24 Nov 00:11:13 00:14:53 42° 68° (ENE) 00:18:53 437.505
NANOSAT C BR1 24 Nov 00:11:18 00:14:20 20° 290° (WNW) 00:17:22 145.865
BEESAT 24 Nov 00:16:06 00:19:57 25° 69° (ENE) 00:23:48 436.000
QB50P1 24 Nov 00:21:21 00:23:48 15° 292° (WNW) 00:26:15 145.935-145.965
CUSAT 1 24 Nov 00:46:00 00:50:43 67° 263° (W) 00:57:06 437.405
RS-15 24 Nov 00:54:14 01:04:41 41° 51° (NE) 01:15:30 29.354- 29.394
DANDE 24 Nov 01:01:14 01:05:44 55° 263° (W) 01:11:50 436.750
Oscar 19 24 Nov 01:04:10 01:08:27 26° 97° (E) 01:12:45 437.125/150
ITUPSAT 1 24 Nov 01:09:07 01:13:56 87° 257° (WSW) 01:18:46 437.325
ISS 24 Nov 01:11:26 01:13:27 15° 328° (NNW) 01:15:27 145.825
MaSat-1 24 Nov 01:15:20 01:17:21 25° 65° (ENE) 01:19:27 437.345
SWISSCUBE 24 Nov 01:21:10 01:25:53 58° 259° (W) 01:30:38 437.505
KKS-1 24 Nov 01:21:56 01:25:27 23° 70° (ENE) 01:28:58 437.445
JUGNU 24 Nov 01:27:29 01:31:50 21° 175° (S) 01:36:12 437.505
SRMSAT 24 Nov 01:34:20 01:37:53 16° 168° (SSE) 01:41:26 437.500
AUBIESAT-1 24 Nov 01:44:34 01:46:37 14° 264° (W) 01:48:47 437.475
M-CUBED/EXP-1 PRIME 24 Nov 01:49:05 01:50:16 11° 265° (W) 01:51:27 437.505
ITAMSAT 1 24 Nov 01:51:49 01:56:15 28° 97° (E) 02:00:39 435.822/435.867
BEESAT 24 Nov 01:53:34 01:57:38 28° 263° (W) 02:01:44 436.000
Gurwin Techsat 1B 24 Nov 02:10:16 02:14:33 25° 96° (E) 02:18:49 435.225
STARS 24 Nov 02:21:41 02:26:05 79° 76° (ENE) 02:30:30 437.465
HORYU 2 24 Nov 02:33:45 02:36:25 15° 94° (E) 02:39:04 437.375
YUBILEINY 24 Nov 02:40:21 02:49:01 65° 92° (E) 02:57:41 435.215
Oscar 19 24 Nov 02:43:16 02:47:42 30° 290° (WNW) 02:52:08 437.125/150
KKS-1 24 Nov 02:58:16 03:01:57 25° 263° (W) 03:05:38 437.445
RS-15 24 Nov 03:06:25 03:17:15 54° 250° (WSW) 03:28:36 29.354- 29.394
JUGNU 24 Nov 03:15:53 03:20:15 21° 185° (S) 03:24:37 437.505
SRMSAT 24 Nov 03:21:56 03:26:26 22° 178° (S) 03:30:56 437.500
SO-50 24 Nov 03:23:26 03:27:12 27° 111° (ESE) 03:31:03 436.795
ITAMSAT 1 24 Nov 03:31:16 03:35:36 28° 291° (WNW) 03:39:55 435.822/435.867
MOZHAYETS 4 24 Nov 03:46:32 03:50:01 22° 70° (ENE) 03:53:31
Gurwin Techsat 1B 24 Nov 03:49:47 03:54:29 33° 290° (WNW) 03:59:10 435.225
HORYU 2 24 Nov 04:09:01 04:13:11 38° 287° (WNW) 04:17:20 437.375
AO-7 24 Nov 04:29:50 04:38:12 70° 105° (ESE) 04:46:30 29.400- 29.500
YUBILEINY 24 Nov 04:39:50 04:46:22 23° 289° (WNW) 04:52:56 435.215
JAS-2 24 Nov 04:46:50 04:52:53 31° 94° (E) 04:58:17 435.910
STRAND 1 24 Nov 05:01:51 05:02:45 10° 63° (ENE) 05:03:39 437.568
SO-50 24 Nov 05:03:54 05:07:39 26° 307° (NW) 05:11:30 436.795
JUGNU 24 Nov 05:05:46 05:08:37 14° 195° (SSW) 05:11:29 437.505
BEESAT 3 24 Nov 05:07:17 05:10:05 17° 52° (NE) 05:12:52 437.485
SRMSAT 24 Nov 05:10:48 05:15:00 20° 188° (S) 05:19:12 437.500
PCSat 24 Nov 05:13:50 05:18:49 36° 59° (ENE) 05:23:47 145.827
BEESAT 2 24 Nov 05:20:32 05:23:47 21° 53° (NE) 05:26:59 435.950
CUBESAT XI-V 24 Nov 05:22:14 05:25:07 16° 68° (ENE) 05:28:01 437.345
MOZHAYETS 4 24 Nov 05:23:05 05:27:02 29° 263° (W) 05:31:01
AIST 2 24 Nov 05:45:15 05:48:25 20° 52° (NE) 05:51:32 435.215
PRISM 24 Nov 05:46:02 05:50:13 86° 257° (WSW) 05:54:28 437.425
Cubesat XI-IV 24 Nov 05:52:55 05:57:27 28° 97° (E) 06:01:58 437.490
ISS 24 Nov 06:06:33 06:07:53 12° 29° (NNE) 06:09:13 145.825
O/OREOS (USA 219) 24 Nov 06:23:05 06:27:35 87° 288° (WNW) 06:32:05 437.305
AO-7 24 Nov 06:24:04 06:30:11 23° 301° (WNW) 06:36:19 29.400- 29.500
JAS-2 24 Nov 06:31:33 06:37:54 37° 292° (WNW) 06:43:35 435.910
CUTE-I 24 Nov 06:34:21 06:39:40 74° 102° (ESE) 06:44:57 437.470
STRAND 1 24 Nov 06:36:04 06:41:13 78° 257° (WSW) 06:46:23 437.568
BEESAT 3 24 Nov 06:44:35 06:48:26 36° 247° (WSW) 06:52:13 437.485
PCSat 24 Nov 06:57:41 07:01:59 24° 253° (WSW) 07:06:15 145.827
CUBESAT XI-V 24 Nov 06:57:44 07:02:10 42° 261° (W) 07:06:39 437.345
BEESAT 2 24 Nov 06:58:26 07:02:03 28° 248° (WSW) 07:05:37 435.950
SRMSAT 24 Nov 07:01:44 07:03:30 11° 197° (SSW) 07:05:16 437.500
AIST 2 24 Nov 07:23:15 07:27:05 33° 248° (WSW) 07:30:52 435.215
Cubesat XI-IV 24 Nov 07:32:54 07:37:26 29° 291° (WNW) 07:41:56 437.490
AIST 1 24 Nov 07:36:48 07:41:08 64° 266° (W) 07:45:24
ISS 24 Nov 07:41:36 07:44:54 79° 225° (SW) 07:48:11 145.825
CUTE-I 24 Nov 08:17:17 08:19:02 12° 297° (WNW) 08:20:46 437.470
CUTE 1.7 & AOD 2 24 Nov 08:19:44 08:22:26 16° 94° (E) 08:25:07 437.475
GONETS M04 24 Nov 08:30:03 08:38:45 72° 93° (E) 08:47:33
GOMX 1 24 Nov 08:45:31 08:48:43 21° 96° (E) 08:51:58 467.674
Oscar 11 24 Nov 08:51:04 08:52:15 11° 92° (E) 08:53:25 145.826/435.025
SEEDS 24 Nov 08:54:20 08:58:18 37° 98° (E) 09:02:15 437.485
BRITE-PL 24 Nov 09:03:04 09:07:06 51° 100° (E) 09:11:12 437.365/2234.400
HO-68 24 Nov 09:03:12 09:10:18 61° 103° (ESE) 09:17:20 435.675
CINEMA 3 24 Nov 09:04:46 09:07:18 15° 95° (E) 09:09:53 145.822/145.860
DX 1 24 Nov 09:10:12 09:13:02 17° 95° (E) 09:15:52 434.975-435.025
TIGRISAT 24 Nov 09:11:27 09:13:17 13° 67° (ENE) 09:15:06 435.000
AAUSAT CUBESAT 2 24 Nov 09:15:13 09:19:19 48° 100° (E) 09:23:25 437.432
CANX-2 24 Nov 09:19:14 09:23:32 82° 282° (WNW) 09:27:50 2200.000
UNISAT 6 24 Nov 09:22:48 09:25:40 18° 69° (ENE) 09:28:33 437.425
NANOSAT C BR1 24 Nov 09:25:51 09:27:46 13° 67° (ENE) 09:29:42 145.865
COMPASS 1 24 Nov 09:28:58 09:33:14 85° 102° (ESE) 09:37:29 437.405
DELFI C3 24 Nov 09:31:01 09:34:38 29° 97° (E) 09:38:13 145.870
QB50P1 24 Nov 09:34:35 09:37:18 17° 69° (ENE) 09:40:00 145.935-145.965
ZACube-1 24 Nov 09:36:47 09:39:28 16° 95° (E) 09:42:11 437.345
DOVE 4 24 Nov 09:49:48 09:53:59 82° 283° (WNW) 09:58:18 437.250
ANTELSAT 24 Nov 09:50:05 09:54:02 37° 73° (ENE) 09:57:58 437.575/2403.000
CUTE 1.7 & AOD 2 24 Nov 09:54:33 09:58:24 33° 287° (WNW) 10:02:14 437.475
BUGSAT 1 24 Nov 09:54:56 09:58:21 24° 71° (ENE) 10:01:46 437.445
AISAT 24 Nov 09:56:00 09:58:54 17° 95° (E) 10:01:48 437.250
POPSAT HIP 1 24 Nov 09:57:54 10:01:41 31° 72° (ENE) 10:05:27 437.405
FUNcube-1 24 Nov 10:11:14 10:15:17 43° 99° (E) 10:19:23 145.935
UKube-1 24 Nov 10:11:28 10:15:49 85° 284° (WNW) 10:20:09 .
GOMX 1 24 Nov 10:23:29 10:26:47 23° 289° (WNW) 10:30:07 467.674
Oscar 11 24 Nov 10:24:26 10:28:38 49° 285° (WNW) 10:32:49 145.826/435.025
CUBEBUG 2 24 Nov 10:27:47 10:32:01 81° 283° (WNW) 10:36:23 437.445
POLYITAN 1 24 Nov 10:29:40 10:33:56 81° 77° (ENE) 10:38:12 437.675
GONETS M04 24 Nov 10:30:14 10:36:18 20° 290° (WNW) 10:42:27
SEEDS 24 Nov 10:31:21 10:33:47 15° 292° (WNW) 10:36:14 437.485
UWE-3 24 Nov 10:32:10 10:36:25 84° 283° (WNW) 10:40:46 435.000/436.395/437.385
QB50P2 24 Nov 10:32:29 10:36:45 87° 77° (ENE) 10:41:02 145.880/145.840
DUCHIFAT 1 24 Nov 10:39:51 10:44:07 77° 258° (WSW) 10:48:23 145.980
CINEMA 3 24 Nov 10:40:46 10:44:34 33° 287° (WNW) 10:48:28 145.822/145.860
DX 1 24 Nov 10:45:27 10:49:19 32° 288° (WNW) 10:53:09 434.975-435.025
TIGRISAT 24 Nov 10:45:33 10:49:38 43° 261° (W) 10:53:42 435.000
HO-68 24 Nov 10:52:11 10:57:23 22° 298° (WNW) 11:02:35 435.675
AAUSAT CUBESAT 2 24 Nov 10:53:11 10:54:32 11° 293° (WNW) 10:55:53 437.432
ESTCUBE 1 24 Nov 10:58:05 11:02:09 32° 98° (E) 11:06:12 437.505/2401.250
UNISAT 6 24 Nov 10:58:27 11:02:14 30° 262° (W) 11:06:00 437.425
NANOSAT C BR1 24 Nov 10:59:11 11:03:15 43° 261° (W) 11:07:19 145.865
VELOX 1 24 Nov 11:06:13 11:10:37 67° 284° (WNW) 11:14:58 145.980
DELFI C3 24 Nov 11:06:55 11:09:41 18° 290° (WNW) 11:12:28 145.870
QB50P1 24 Nov 11:09:03 11:12:54 33° 262° (W) 11:16:46 145.935-145.965
HUMSAT D 24 Nov 11:09:41 11:13:47 58° 284° (WNW) 11:17:54 437.325/437.525
50 SAT 24 Nov 11:11:33 11:15:35 67° 284° (WNW) 11:19:38 437.505
ZACube-1 24 Nov 11:12:06 11:15:52 32° 287° (WNW) 11:19:42 437.345
ANTELSAT 24 Nov 11:28:45 11:30:57 14° 266° (W) 11:33:09 437.575/2403.000
BUGSAT 1 24 Nov 11:30:22 11:33:44 23° 264° (W) 11:37:06 437.445
AISAT 24 Nov 11:31:38 11:35:35 33° 288° (WNW) 11:39:31 437.250
POPSAT HIP 1 24 Nov 11:34:49 11:37:36 17° 265° (W) 11:40:23 437.405
TISAT 1 24 Nov 11:43:59 11:47:22 23° 96° (E) 11:50:43 437.305
SPROUT 24 Nov 11:47:46 11:51:10 23° 96° (E) 11:54:32 437.525
FUNcube-1 24 Nov 11:49:21 11:51:15 13° 292° (WNW) 11:53:10 145.935
CUBEBUG 1 24 Nov 11:51:27 11:55:44 58° 285° (WNW) 11:59:59 437.445
SO-50 24 Nov 12:00:39 12:02:02 11° 46° (NE) 12:03:24 436.795
Oscar 19 24 Nov 12:17:16 12:21:23 25° 69° (ENE) 12:25:30 437.125/150
DANDE 24 Nov 12:33:35 12:34:28 11° 95° (E) 12:35:19 436.750
ESTCUBE 1 24 Nov 12:35:35 12:38:46 19° 291° (WNW) 12:41:56 437.505/2401.250
YUBILEINY 24 Nov 12:56:56 13:03:48 25° 72° (ENE) 13:10:36 435.215
ITAMSAT 1 24 Nov 13:05:48 13:10:15 29° 69° (ENE) 13:14:42 435.822/435.867
ITUPSAT 1 24 Nov 13:14:36 13:18:57 34° 98° (E) 13:23:16 437.325
TISAT 1 24 Nov 13:19:48 13:23:04 22° 290° (WNW) 13:26:19 437.305
SPROUT 24 Nov 13:23:44 13:27:08 23° 289° (WNW) 13:30:31 437.525
SWISSCUBE 24 Nov 13:26:02 13:30:43 51° 100° (E) 13:35:21 437.505
Gurwin Techsat 1B 24 Nov 13:27:24 13:31:44 26° 69° (ENE) 13:36:06 435.225
AUBIESAT-1 24 Nov 13:28:47 13:33:41 66° 105° (ESE) 13:38:25 437.475
PHONESAT 2.4 24 Nov 13:32:33 13:33:08 10° 139° (SE) 13:33:44 2401.200-2431.200
M-CUBED/EXP-1 PRIME 24 Nov 13:32:39 13:37:37 80° 106° (ESE) 13:42:25 437.505
SO-50 24 Nov 13:38:19 13:43:13 90° 243° (WSW) 13:48:07 436.795
AO-7 24 Nov 13:38:43 13:40:53 11° 51° (NE) 13:43:02 29.400- 29.500
VERMONT LUNAR 24 Nov 13:48:42 13:51:31 22° 143° (SE) 13:54:21 437.305
Oscar 19 24 Nov 13:56:04 14:00:32 31° 263° (W) 14:05:02 437.125/150
BEESAT 24 Nov 13:57:27 14:02:14 77° 284° (WNW) 14:07:00 436.000
CUSAT 1 24 Nov 13:57:49 13:59:49 17° 281° (W) 14:01:40 437.405
DANDE 24 Nov 14:16:27 14:17:47 12° 281° (W) 14:19:02 436.750
STARS 24 Nov 14:17:02 14:20:17 20° 96° (E) 14:23:31 437.465
MaSat-1 24 Nov 14:40:38 14:42:48 17° 108° (ESE) 14:44:50 437.345
ITAMSAT 1 24 Nov 14:45:14 14:49:38 27° 263° (W) 14:54:03 435.822/435.867
YUBILEINY 24 Nov 14:52:32 15:01:00 58° 269° (W) 15:09:24 435.215
KKS-1 24 Nov 14:52:56 14:57:23 87° 103° (ESE) 15:01:49 437.445
ITUPSAT 1 24 Nov 14:53:04 14:56:35 21° 292° (WNW) 15:00:04 437.325
JAS-2 24 Nov 14:57:46 14:59:36 11° 56° (NE) 15:01:26 435.910
HORYU 2 24 Nov 15:03:07 15:07:31 71° 258° (WSW) 15:11:56 437.375
SWISSCUBE 24 Nov 15:05:39 15:08:05 14° 294° (WNW) 15:10:31 437.505
AUBIESAT-1 24 Nov 15:05:51 15:08:02 13° 300° (WNW) 15:10:12 437.475
Gurwin Techsat 1B 24 Nov 15:06:51 15:11:31 31° 263° (W) 15:16:13 435.225
PHONESAT 2.4 24 Nov 15:07:47 15:11:27 66° 151° (SSE) 15:15:09 2401.200-2431.200
M-CUBED/EXP-1 PRIME 24 Nov 15:10:43 15:11:55 11° 301° (WNW) 15:13:07 437.505
RS-15 24 Nov 15:13:28 15:23:07 37° 106° (ESE) 15:32:38 29.354- 29.394
AO-7 24 Nov 15:23:54 15:32:03 65° 69° (ENE) 15:40:14 29.400- 29.500
VERMONT LUNAR 24 Nov 15:26:11 15:29:47 65° 337° (NNW) 15:33:23 437.305
STARS 24 Nov 15:52:59 15:56:43 28° 289° (WNW) 16:00:27 437.465
MaSat-1 24 Nov 16:15:34 16:17:16 14° 297° (WNW) 16:18:54 437.345
